Location: Bishopstone
(51.0167°N, 1.9000°W)
Time: 10:50:07
(UTC+00:00)

USA 234 - Pass Details

Date: 16 September 2019
Orbit: 1103 x 1105 km, 123.0° (Epoch: 06 October)

Event Time Altitude Azimuth Distance (km) Brightness Sun altitude
Exits shadow 21:42:12 53° 75° (ENE) 1,335 3.4 -28.7°
Maximum altitude 21:43:39 68° 19° (NNE) 1,185 3.4 -28.9°
Drops below altitude 10° 21:50:09 10° 299° (WNW) 2,968 6.3 -29.5°
Sets 21:52:38 0° 297° (WNW) 3,927 7.1 -29.8°
